Tracking 20624 objects as of 28-Mar-2020
HD Live streaming from Space Station
objects crossing your sky now

SCATHA AKM

Track SCATHA AKM now!


NORAD ID: 29000
Int'l Code: 1979-007C
Perigee: 28,160.5 km
Apogee: 42,695.2 km
Inclination: 15.0 °
Period: 1,417.4 minutes
Semi major axis: 41798 km
RCS: 0.003 m2 (small)
Launch date: January 30, 1979
Source: United States (US)
Launch site: AIR FORCE EASTERN TEST RANGE (AFETR)

Note: This is a ROCKET BODY
aabbcc
Your satellite tracking list
Your tracking list is empty




NASA's NSSDC Master Catalog

Two Line Element Set (TLE):
1 29000U 79007C   20087.62787344 -.00000298  00000-0  00000+0 0  9991
2 29000  15.0479 311.9890 1738653  59.0677 306.4708  1.01591246 54845
Source of the keplerian elements: AFSPC